Location: Delta State University
(33.7460°N, 90.7320°W)
Time: 14:50:09
(UTC-05:00)

Iridium 13 - Visible Passes

Search period start: 20 September 2017 00:00
Search period end: 30 September 2017 00:00
Orbit: 776 x 779 km, 86.4° (Epoch: 19 September)

Date Brightness Start Highest point End Pass type
(mag) Time Alt. Az. Time Alt. Az. Time Alt. Az.
20 Sep 7.9 21:40:47 13° N 21:40:47 13° N 21:41:18 10° N visible
21 Sep 7.9 21:07:09 11° NNE 21:07:09 11° NNE 21:07:20 10° NNE visible
22 Sep 8.1 22:13:56 15° NNW 22:13:56 15° NNW 22:14:47 10° NNW visible
23 Sep 7.7 21:40:14 18° N 21:40:14 18° N 21:41:28 10° N visible
24 Sep 7.5 21:06:30 17° NNE 21:06:30 17° NNE 21:07:45 10° NNE visible
25 Sep 7.5 20:32:44 14° NE 20:32:44 14° NE 20:33:35 10° NNE visible
25 Sep 8.0 22:13:11 17° NNW 22:13:11 17° NNW 22:14:31 10° NNW visible
26 Sep 7.3 21:39:21 24° NNW 21:39:21 24° NNW 21:41:29 10° N visible
27 Sep 6.8 21:05:27 29° NNE 21:05:27 29° NNE 21:08:00 10° N visible
28 Sep 6.7 20:31:27 26° NE 20:31:27 26° NE 20:34:09 10° NNE visible
28 Sep 8.0 22:11:53 18° NW 22:11:53 18° NW 22:14:01 10° NNW visible
29 Sep 7.0 19:57:19 17° ENE 19:57:19 17° ENE 19:59:41 10° NE visible
29 Sep 7.0 21:37:44 34° NW 21:37:44 34° NW 21:41:20 10° NNW visible
